Regional Weather Roundup
Issued by NWS Newport/Morehead, NC

Current Version | Previous Version | Text Only | Print | Product List | Glossary On
Versions: 1 2 3 4 5 6 7 8 9 10 11 12 13 14 15 16 17 18 19 20 21 22 23 24 25 26 27 28 29 30 31 32 33 34 35 36 37 38 39 40 41 42 43 44 45 46 47 48 49 50
000
ASUS42 KMHX 260025
RWRMHX
WEATHER ROUNDUP FOR EASTERN NORTH CAROLINA
NATIONAL WEATHER SERVICE NEWPORT/MOREHEAD CITY NC
800 PM EDT MON SEP 25 2017

NOTE: "FAIR" INDICATES FEW OR NO CLOUDS BELOW 12,000 FEET
WITH NO SIGNIFICANT WEATHER AND/OR OBSTRUCTIONS TO VISIBILITY

NCZ015>017-031-032-045>047-102-103-260100-
NORTH COAST

CITY           SKY/WX    TMP DP  RH WIND       PRES   REMARKS
EDENTON        CLOUDY    74  69  84 NE5       29.92R
ELIZABETH CITY CLOUDY    72  70  93 NE16      29.92S
KITTY HAWK     CLOUDY    70  69  98 NE12G23   29.89S
MANTEO         CLOUDY    71  70  97 NE14G26   29.90R

$$

NCZ045>047-081-094-103-104-260100-
CENTRAL COAST

CITY           SKY/WX    TMP DP  RH WIND       PRES   REMARKS
FRISCO         CLOUDY    76  74  93 NE12G23   29.83S

$$

NCZ095-097-098-100-101-260100-
SOUTHERN COAST

CITY           SKY/WX    TMP DP  RH WIND       PRES   REMARKS
BEAUFORT       CLOUDY    75  73  93 N16G32    29.83S
CEDAR ISLAND   NOT AVBL
JACKSONVILLE   CLOUDY    77  72  84 N14       29.85S
PINEY ISLAND     N/A    N/A N/A N/A N21G31    29.84S
WILMINGTON     CLOUDY    77  71  82 N10       29.85S


$$

NCZ011>013-027>030-043-044-078>080-089-090>093-098-260100-
COASTAL PLAIN

CITY           SKY/WX    TMP DP  RH WIND       PRES   REMARKS
AHOSKIE        PTCLDY    72  67  85 NE7       29.94R
CLINTON        CLOUDY    77  71  81 N3        29.90R
ELIZABETHTOWN  NOT AVBL
GOLDSBORO      CLOUDY    77  74  88 N9        29.88S
GREENVILLE     MOCLDY    77  68  73 N8        29.93R
HAVELOCK       CLOUDY    75  72  88 N15       29.86R
KENANSVILLE    CLOUDY    75  70  83 N5        29.89R
KINSTON        CLOUDY    77  68  73 N9        29.90R
NEW BERN       CLOUDY    75  71  87 N10       29.88R FOG
RICHLANDS      CLOUDY    77  70  79 N9        29.88R
ROCKY MOUNT    PTCLDY    74  68  81 NE8       29.92S
WASHINGTON     CLOUDY    75  69  81 N10       29.90R
WHITEVILLE     MOCLDY    75  69  81 N3        29.87S

$$

AMZ130-135-150-152-154-156-158-170-250-252-270-ANZ085-086-088-633-658-670-260100-
MARINE OBSERVATIONS

STATION/POSITION TIME  TEMP    WIND        PRES    WAVE   SWELL
                       AIR SEA DIR/SP/G            HT/PER HT/PER
                 (UTC) (F)     (DEG/KT/KT) (MB)    (FT/S) (FT/S)
CHESAPEAKE LIGHT NOT AVBL
64 E VA BEACH    2350   71 70   50/ 16/ 17 1013.3   14/15  13/15
DUCK             0000   72 76   30/ 24/ 28 1012.1
2 E DUCK         0000      76                N/A     9/13   5/13
OREGON INLET     0000   72 76   30/ 18/ 24 1011.5
13E OREGON INLT  2348      75                N/A    14/14  13/14
HATTERAS CG      0000   75 77   40/ 19/ 26 1009.9
DIAMOND BUOY     2350   75 79   30/ 27/ 31 1008.2   15/14  13/14
CAPE LOOKOUT     0000   75      20/ 23/ 28 1009.3
BEAUFORT LAB     0000   75 75   20/ 16/ 22 1009.5
30 SE NEW RVR IN 0008   77      30/ 23/ 31 1009.0
30 SE NEW RVR IN NOT AVBL
27 SE WRIGHTSVLE 0008   78 79   40/ 21/ 27 1009.2
5 SE WRIGHTSVLE  0008   78 78   10/ 14/ 23 1010.2
225 S CAPE HAT   2350   77 81  340/ 41/ 52  992.5   19/10  10/11
41 SE CHARLESTON 0010   78 81  350/ 19/ 21 1009.9

$$



USA.gov is the U.S. government's official web portal to all federal, state and local government web resources and services.